Location: NJAA Observatory
(40.6819°N, 74.8979°W)
Time: 17:15:46
(UTC-04:00)

S-56A Canister/Altair - Visible Passes

Search period start: 02 September 2014 00:00
Search period end: 12 September 2014 00:00
Orbit: 632 x 2504 km, 38.9° (Epoch: 29 August)

Date Brightness Start Highest point End Pass type
(mag) Time Alt. Az. Time Alt. Az. Time Alt. Az.
02 Sep 11.5 20:53:27 10° W 21:01:31 17° SW 21:09:29 10° SSW visible
03 Sep 11.5 20:19:39 10° W 20:28:50 20° SW 20:38:06 10° S visible
04 Sep 11.6 19:46:11 10° W 19:56:06 23° SW 20:06:23 10° S visible
